| time (UTC) | temp C | wind direction | speed KPH | gust KPH | rain 1hr cm | rain 24hr cm | rain mn cm | humidity % | barometer mb |
| 20260906201013 | 27 | 204 | 9.7 | 16.1 | 0.00 | 0.00 | 0.00 | 77 | 1014.8 |
| 20260906200514 | 27 | 360 | 8.0 | 25.7 | 0.00 | 0.00 | 0.00 | 77 | 1014.8 |
| 20260906200039 | 27 | 149 | 9.7 | 24.1 | 0.00 | 0.00 | 0.00 | 77 | 1014.8 |
| 20260906195516 | 27 | 170 | 11.3 | 19.3 | 0.00 | 0.00 | 0.00 | 77 | 1014.8 |
| 20260906195015 | 27 | 192 | 11.3 | 20.9 | 0.00 | 0.00 | 0.00 | 76 | 1014.7 |
| 20260906194527 | 27 | 182 | 12.9 | 20.9 | 0.00 | 0.00 | 0.00 | 76 | 1014.6 |
| 20260906194019 | 27 | 209 | 12.9 | 20.9 | 0.00 | 0.00 | 0.00 | 76 | 1014.5 |
| 20260906193514 | 27 | 173 | 9.7 | 25.7 | 0.00 | 0.00 | 0.00 | 76 | 1014.4 |
| 20260906193025 | 27 | 189 | 16.1 | 25.7 | 0.00 | 0.00 | 0.00 | 75 | 1014.5 |
| 20260906192515 | 27 | 184 | 14.5 | 24.1 | 0.00 | 0.00 | 0.00 | 75 | 1014.6 |
| 20260906192014 | 27 | 173 | 14.5 | 25.7 | 0.00 | 0.00 | 0.00 | 74 | 1014.7 |
| 20260906191537 | 28 | 159 | 17.7 | 25.7 | 0.00 | 0.00 | 0.00 | 73 | 1014.6 |
| 20260906191015 | 28 | 165 | 14.5 | 25.7 | 0.00 | 0.00 | 0.00 | 73 | 1014.7 |
| 20260906190515 | 28 | 189 | 14.5 | 25.7 | 0.00 | 0.00 | 0.00 | 73 | 1014.6 |
| 20260906190034 | 28 | 86 | 9.7 | 25.7 | 0.00 | 0.00 | 0.00 | 71 | 1014.7 |
| 20260906185514 | 29 | 231 | 14.5 | 25.7 | 0.00 | 0.00 | 0.00 | 72 | 1014.8 |
| 20260906185015 | 29 | 196 | 11.3 | 20.9 | 0.00 | 0.00 | 0.00 | 71 | 1014.9 |
| 20260906184529 | 29 | 197 | 11.3 | 19.3 | 0.00 | 0.00 | 0.00 | 71 | 1014.9 |
| 20260906184014 | 29 | 186 | 9.7 | 20.9 | 0.00 | 0.00 | 0.00 | 70 | 1014.7 |
| 20260906183517 | 30 | 196 | 6.4 | 20.9 | 0.00 | 0.00 | 0.00 | 69 | 1014.7 |
| 20260906183029 | 30 | 177 | 12.9 | 22.5 | 0.00 | 0.00 | 0.00 | 70 | 1014.6 |
| 20260906182519 | 29 | 172 | 9.7 | 19.3 | 0.00 | 0.00 | 0.00 | 71 | 1014.6 |
| 20260906182016 | 29 | 75 | 6.4 | 17.7 | 0.00 | 0.00 | 0.00 | 69 | 1014.6 |
| 20260906181541 | 30 | 167 | 9.7 | 22.5 | 0.00 | 0.00 | 0.00 | 68 | 1014.6 |
| 20260906181016 | 30 | 174 | 14.5 | 22.5 | 0.00 | 0.00 | 0.00 | 70 | 1014.7 |
| 20260906180516 | 29 | 360 | 9.7 | 19.3 | 0.00 | 0.00 | 0.00 | 72 | 1014.6 |
| 20260906180034 | 29 | 203 | 11.3 | 22.5 | 0.00 | 0.00 | 0.00 | 69 | 1014.7 |
| 20260906175516 | 29 | 197 | 11.3 | 22.5 | 0.00 | 0.00 | 0.00 | 73 | 1014.9 |
| 20260906175017 | 28 | 105 | 11.3 | 22.5 | 0.00 | 0.00 | 0.00 | 73 | 1014.9 |
| 20260906174530 | 28 | 173 | 3.2 | 22.5 | 0.00 | 0.00 | 0.00 | 74 | 1014.8 |
| 20260906174016 | 28 | 173 | 14.5 | 22.5 | 0.00 | 0.00 | 0.00 | 75 | 1014.9 |
| 20260906173517 | 27 | 217 | 6.4 | 17.7 | 0.00 | 0.00 | 0.00 | 75 | 1015.0 |
| 20260906173030 | 27 | 360 | 6.4 | 17.7 | 0.00 | 0.00 | 0.00 | 75 | 1015.1 |
| 20260906172515 | 27 | 185 | 11.3 | 16.1 | 0.00 | 0.00 | 0.00 | 75 | 1015.2 |
| 20260906172014 | 27 | 223 | 4.8 | 14.5 | 0.00 | 0.00 | 0.00 | 74 | 1015.4 |
| 20260906171531 | 27 | 185 | 6.4 | 19.3 | 0.00 | 0.00 | 0.00 | 75 | 1015.5 |
| 20260906171015 | 27 | 126 | 6.4 | 19.3 | 0.00 | 0.00 | 0.00 | 74 | 1015.5 |
| 20260906170521 | 27 | 158 | 9.7 | 14.5 | 0.00 | 0.00 | 0.00 | 74 | 1015.5 |
| 20260906170029 | 28 | 211 | 3.2 | 19.3 | 0.00 | 0.00 | 0.00 | 72 | 1015.6 |
| 20260906165516 | 28 | 360 | 8.0 | 19.3 | 0.00 | 0.00 | 0.00 | 71 | 1015.7 |
| 20260906165015 | 28 | 157 | 6.4 | 16.1 | 0.00 | 0.00 | 0.00 | 71 | 1015.7 |
| 20260906164538 | 28 | 115 | 8.0 | 17.7 | 0.00 | 0.00 | 0.00 | 73 | 1015.8 |
| 20260906164016 | 28 | 80 | 4.8 | 17.7 | 0.00 | 0.00 | 0.00 | 72 | 1015.8 |
| 20260906163515 | 28 | 113 | 4.8 | 17.7 | 0.00 | 0.00 | 0.00 | 74 | 1015.8 |
| 20260906163027 | 27 | 112 | 4.8 | 14.5 | 0.00 | 0.00 | 0.00 | 73 | 1015.9 |
| 20260906162516 | 27 | 80 | 4.8 | 16.1 | 0.00 | 0.00 | 0.00 | 75 | 1015.8 |
| 20260906162015 | 27 | 126 | 9.7 | 16.1 | 0.00 | 0.00 | 0.00 | 74 | 1015.8 |
| 20260906161532 | 27 | 123 | 3.2 | 14.5 | 0.00 | 0.00 | 0.00 | 75 | 1015.8 |
| 20260906161018 | 27 | 159 | 3.2 | 19.3 | 0.00 | 0.00 | 0.00 | 75 | 1015.8 |
| 20260906160518 | 27 | 117 | 3.2 | 20.9 | 0.00 | 0.00 | 0.00 | 76 | 1015.8 |
| 20260906160030 | 27 | 163 | 6.4 | 20.9 | 0.00 | 0.00 | 0.00 | 76 | 1015.9 |
| 20260906155516 | 27 | 157 | 6.4 | 19.3 | 0.00 | 0.00 | 0.00 | 76 | 1015.9 |
| 20260906155016 | 27 | 204 | 12.9 | 19.3 | 0.00 | 0.00 | 0.00 | 76 | 1015.9 |
| 20260906154538 | 27 | 177 | 6.4 | 14.5 | 0.00 | 0.00 | 0.00 | 76 | 1015.9 |
| 20260906154019 | 27 | 117 | 4.8 | 14.5 | 0.00 | 0.00 | 0.00 | 77 | 1015.9 |
| 20260906153514 | 26 | 119 | 4.8 | 12.9 | 0.00 | 0.00 | 0.00 | 77 | 1015.9 |
| 20260906153035 | 26 | 105 | 3.2 | 12.9 | 0.00 | 0.00 | 0.00 | 79 | 1016.0 |
| 20260906152526 | 26 | 101 | 3.2 | 12.9 | 0.00 | 0.00 | 0.00 | 79 | 1015.9 |
| 20260906152016 | 25 | 186 | 4.8 | 14.5 | 0.00 | 0.00 | 0.00 | 80 | 1015.8 |
| 20260906151533 | 25 | 117 | 6.4 | 14.5 | 0.00 | 0.00 | 0.00 | 79 | 1015.8 |
| 20260906151017 | 25 | 182 | 4.8 | 12.9 | 0.00 | 0.00 | 0.00 | 80 | 1015.8 |
| 20260906150518 | 25 | 134 | 1.6 | 17.7 | 0.00 | 0.00 | 0.00 | 82 | 1015.8 |
| 20260906150029 | 25 | 105 | 8.0 | 17.7 | 0.00 | 0.00 | 0.00 | 81 | 1015.8 |
| 20260906145519 | 25 | 80 | 4.8 | 14.5 | 0.00 | 0.00 | 0.00 | 82 | 1015.8 |
| 20260906145019 | 24 | 110 | 3.2 | 12.9 | 0.00 | 0.00 | 0.00 | 82 | 1015.8 |
| 20260906144529 | 24 | 101 | 3.2 | 12.9 | 0.00 | 0.00 | 0.00 | 82 | 1016.0 |
| 20260906144013 | 24 | 198 | 3.2 | 9.7 | 0.00 | 0.00 | 0.00 | 83 | 1016.0 |
| 20260906143514 | 24 | 90 | 1.6 | 11.3 | 0.00 | 0.00 | 0.00 | 83 | 1016.0 |
| 20260906143034 | 24 | 76 | 4.8 | 14.5 | 0.00 | 0.00 | 0.00 | 83 | 1016.1 |
| 20260906142519 | 24 | 121 | 4.8 | 14.5 | 0.00 | 0.00 | 0.00 | 83 | 1016.0 |
| 20260906142021 | 24 | 97 | 3.2 | 12.9 | 0.00 | 0.00 | 0.00 | 83 | 1016.0 |
| 20260906141534 | 23 | 138 | 4.8 | 12.9 | 0.00 | 0.00 | 0.00 | 83 | 1016.0 |
| 20260906141019 | 23 | 80 | 4.8 | 12.9 | 0.00 | 0.00 | 0.00 | 83 | 1016.1 |
| 20260906140517 | 23 | 121 | 1.6 | 11.3 | 0.00 | 0.00 | 0.00 | 83 | 1016.1 |
| 20260906140036 | 23 | 115 | 1.6 | 11.3 | 0.00 | 0.00 | 0.00 | 83 | 1016.1 |
| 20260906135516 | 23 | 126 | 1.6 | 12.9 | 0.00 | 0.00 | 0.00 | 83 | 1016.2 |
| 20260906135016 | 23 | 86 | 4.8 | 12.9 | 0.00 | 0.00 | 0.00 | 83 | 1016.2 |
| 20260906134534 | 23 | 98 | 1.6 | 11.3 | 0.00 | 0.00 | 0.00 | 83 | 1016.3 |
| 20260906134018 | 23 | 117 | 3.2 | 11.3 | 0.00 | 0.00 | 0.00 | 83 | 1016.3 |
| 20260906133514 | 23 | 133 | 3.2 | 12.9 | 0.00 | 0.00 | 0.00 | 83 | 1016.3 |
| 20260906133030 | 23 | 92 | 3.2 | 12.9 | 0.00 | 0.00 | 0.00 | 84 | 1016.3 |
| 20260906132519 | 23 | 139 | 3.2 | 11.3 | 0.00 | 0.00 | 0.00 | 84 | 1016.2 |
| 20260906132019 | 23 | 132 | 3.2 | 14.5 | 0.00 | 0.00 | 0.00 | 85 | 1016.3 |
| 20260906131534 | 23 | 120 | 4.8 | 14.5 | 0.00 | 0.00 | 0.00 | 85 | 1016.4 |
| 20260906131018 | 22 | 163 | 0.0 | 14.5 | 0.00 | 0.00 | 0.00 | 86 | 1016.3 |
| 20260906130520 | 22 | 135 | 3.2 | 9.7 | 0.00 | 0.00 | 0.00 | 86 | 1016.3 |
| 20260906130031 | 22 | 133 | 1.6 | 9.7 | 0.00 | 0.00 | 0.00 | 87 | 1016.2 |
| 20260906125515 | 22 | 162 | 0.0 | 6.4 | 0.00 | 0.00 | 0.00 | 87 | 1016.0 |
| 20260906125017 | 22 | 136 | 3.2 | 6.4 | 0.00 | 0.00 | 0.00 | 88 | 1015.9 |
| 20260906124538 | 21 | 127 | 0.0 | 4.8 | 0.00 | 0.00 | 0.00 | 88 | 1015.7 |
| 20260906124016 | 21 | 187 | 0.0 | 4.8 | 0.00 | 0.00 | 0.00 | 88 | 1015.7 |
| 20260906123516 | 21 | 242 | 0.0 | 4.8 | 0.00 | 0.00 | 0.00 | 88 | 1015.7 |
| 20260906123032 | 21 | 101 | 0.0 | 6.4 | 0.00 | 0.00 | 0.00 | 88 | 1015.6 |
| 20260906122519 | 21 | 132 | 0.0 | 6.4 | 0.00 | 0.00 | 0.00 | 88 | 1015.7 |
| 20260906122020 | 21 | 96 | 0.0 | 4.8 | 0.00 | 0.00 | 0.00 | 88 | 1015.7 |
| 20260906121534 | 21 | 130 | 0.0 | 6.4 | 0.00 | 0.00 | 0.00 | 88 | 1015.7 |
| 20260906121021 | 21 | 119 | 0.0 | 6.4 | 0.00 | 0.00 | 0.00 | 88 | 1015.8 |
| 20260906120519 | 21 | 139 | 0.0 | 4.8 | 0.00 | 0.00 | 0.00 | 88 | 1015.7 |
| 20260906120040 | 21 | 129 | 0.0 | 3.2 | 0.00 | 0.00 | 0.00 | 88 | 1015.8 |
| 20260906115518 | 21 | 103 | 0.0 | 3.2 | 0.00 | 0.00 | 0.00 | 88 | 1015.8 |
| 20260906115015 | 21 | 111 | 0.0 | 3.2 | 0.00 | 0.00 | 0.00 | 88 | 1015.8 |
| 20260906114544 | 21 | 191 | 0.0 | 8.0 | 0.00 | 0.00 | 0.00 | 88 | 1016.0 |
| 20260906114016 | 21 | 150 | 0.0 | 8.0 | 0.00 | 0.00 | 0.00 | 88 | 1016.0 |
| 20260906113517 | 21 | 169 | 0.0 | 4.8 | 0.00 | 0.00 | 0.00 | 87 | 1015.8 |
| 20260906113032 | 21 | 185 | 0.0 | 6.4 | 0.00 | 0.00 | 0.00 | 87 | 1015.8 |
| 20260906112519 | 21 | 188 | 1.6 | 8.0 | 0.00 | 0.00 | 0.00 | 87 | 1015.7 |
| 20260906112022 | 21 | 148 | 0.0 | 11.3 | 0.00 | 0.00 | 0.00 | 87 | 1015.6 |
| 20260906111535 | 21 | 163 | 4.8 | 11.3 | 0.00 | 0.00 | 0.00 | 87 | 1015.6 |
| 20260906111019 | 21 | 187 | 4.8 | 9.7 | 0.00 | 0.00 | 0.00 | 87 | 1015.7 |
| 20260906110519 | 21 | 91 | 1.6 | 9.7 | 0.00 | 0.00 | 0.00 | 87 | 1015.8 |
| 20260906110031 | 21 | 151 | 1.6 | 12.9 | 0.00 | 0.00 | 0.00 | 87 | 1015.7 |
| 20260906105518 | 21 | 186 | 6.4 | 12.9 | 0.00 | 0.00 | 0.00 | 87 | 1015.6 |
| 20260906105019 | 21 | 178 | 4.8 | 11.3 | 0.00 | 0.00 | 0.00 | 87 | 1015.6 |
| 20260906104535 | 21 | 360 | 3.2 | 9.7 | 0.00 | 0.00 | 0.00 | 87 | 1015.6 |
| 20260906104017 | 21 | 178 | 1.6 | 9.7 | 0.00 | 0.00 | 0.00 | 87 | 1015.5 |
| 20260906103514 | 21 | 171 | 0.0 | 9.7 | 0.00 | 0.00 | 0.00 | 87 | 1015.5 |
| 20260906103031 | 21 | 178 | 0.0 | 9.7 | 0.00 | 0.00 | 0.00 | 87 | 1015.5 |
| 20260906102514 | 21 | 124 | 0.0 | 9.7 | 0.00 | 0.00 | 0.00 | 87 | 1015.5 |
| 20260906102019 | 21 | 103 | 0.0 | 8.0 | 0.00 | 0.00 | 0.00 | 87 | 1015.5 |
| 20260906101531 | 21 | 113 | 0.0 | 6.4 | 0.00 | 0.00 | 0.00 | 87 | 1015.5 |
| 20260906101019 | 21 | 115 | 0.0 | 3.2 | 0.00 | 0.00 | 0.00 | 87 | 1015.5 |
| 20260906100520 | 21 | 98 | 0.0 | 3.2 | 0.00 | 0.00 | 0.00 | 87 | 1015.5 |
| 20260906100035 | 21 | 106 | 0.0 | 4.8 | 0.00 | 0.00 | 0.00 | 87 | 1015.5 |
| 20260906095520 | 21 | 103 | 0.0 | 4.8 | 0.00 | 0.00 | 0.00 | 87 | 1015.4 |
| 20260906095018 | 21 | 96 | 0.0 | 1.6 | 0.00 | 0.00 | 0.00 | 87 | 1015.3 |
| 20260906094554 | 21 | 98 | 0.0 | 3.2 | 0.00 | 0.00 | 0.00 | 87 | 1015.3 |
| 20260906094016 | 21 | 95 | 0.0 | 3.2 | 0.00 | 0.00 | 0.00 | 87 | 1015.4 |
| 20260906093514 | 21 | 112 | 0.0 | 3.2 | 0.00 | 0.00 | 0.00 | 87 | 1015.4 |
| 20260906093042 | 21 | 116 | 0.0 | 3.2 | 0.00 | 0.00 | 0.00 | 86 | 1015.5 |
| 20260906092519 | 21 | 98 | 0.0 | 3.2 | 0.00 | 0.00 | 0.00 | 86 | 1015.5 |
| 20260906092020 | 21 | 99 | 0.0 | 0.0 | 0.00 | 0.00 | 0.00 | 86 | 1015.5 |
| 20260906091529 | 21 | 99 | 0.0 | 0.0 | 0.00 | 0.00 | 0.00 | 86 | 1015.5 |
| 20260906091020 | 21 | 107 | 0.0 | 0.0 | 0.00 | 0.00 | 0.00 | 86 | 1015.6 |
| 20260906090518 | 21 | 100 | 0.0 | 3.2 | 0.00 | 0.00 | 0.00 | 85 | 1015.6 |
| 20260906090033 | 21 | 93 | 0.0 | 3.2 | 0.00 | 0.00 | 0.00 | 85 | 1015.6 |
| 20260906085518 | 21 | 101 | 1.6 | 3.2 | 0.00 | 0.00 | 0.00 | 85 | 1015.6 |
| 20260906085015 | 21 | 86 | 0.0 | 3.2 | 0.00 | 0.00 | 0.00 | 85 | 1015.6 |
| 20260906084531 | 21 | 86 | 0.0 | 3.2 | 0.00 | 0.00 | 0.00 | 84 | 1015.5 |
| 20260906084015 | 21 | 88 | 1.6 | 3.2 | 0.00 | 0.00 | 0.00 | 84 | 1015.4 |
| 20260906083521 | 21 | 98 | 0.0 | 3.2 | 0.00 | 0.00 | 0.00 | 84 | 1015.4 |
| 20260906083043 | 21 | 96 | 0.0 | 3.2 | 0.00 | 0.00 | 0.00 | 84 | 1015.3 |
| 20260906082519 | 22 | 121 | 0.0 | 3.2 | 0.00 | 0.00 | 0.00 | 84 | 1015.4 |
| 20260906082024 | 22 | 89 | 1.6 | 4.8 | 0.00 | 0.00 | 0.00 | 83 | 1015.3 |
| 20260906081538 | 22 | 87 | 0.0 | 4.8 | 0.00 | 0.00 | 0.00 | 83 | 1015.3 |
| 20260906081019 | 22 | 105 | 0.0 | 4.8 | 0.00 | 0.00 | 0.00 | 83 | 1015.3 |
| 20260906080519 | 22 | 86 | 0.0 | 3.2 | 0.00 | 0.00 | 0.00 | 83 | 1015.3 |
| 20260906080039 | 22 | 94 | 0.0 | 3.2 | 0.00 | 0.00 | 0.00 | 83 | 1015.2 |
| 20260906075519 | 22 | 119 | 0.0 | 3.2 | 0.00 | 0.00 | 0.00 | 83 | 1015.2 |
| 20260906075018 | 22 | 171 | 0.0 | 4.8 | 0.00 | 0.00 | 0.00 | 82 | 1015.2 |
| 20260906074534 | 22 | 105 | 0.0 | 4.8 | 0.00 | 0.00 | 0.00 | 82 | 1015.1 |
| 20260906074018 | 22 | 111 | 0.0 | 4.8 | 0.00 | 0.00 | 0.00 | 82 | 1015.1 |
| 20260906073518 | 22 | 107 | 0.0 | 3.2 | 0.00 | 0.00 | 0.00 | 82 | 1015.2 |
| 20260906073031 | 22 | 98 | 0.0 | 3.2 | 0.00 | 0.00 | 0.00 | 82 | 1015.2 |
| 20260906072514 | 22 | 114 | 0.0 | 8.0 | 0.00 | 0.00 | 0.00 | 81 | 1015.3 |
| 20260906072020 | 22 | 116 | 0.0 | 16.1 | 0.00 | 0.00 | 0.00 | 81 | 1015.4 |
| 20260906071532 | 22 | 103 | 1.6 | 16.1 | 0.00 | 0.00 | 0.00 | 81 | 1015.4 |
| 20260906071019 | 22 | 360 | 1.6 | 14.5 | 0.00 | 0.00 | 0.00 | 81 | 1015.4 |
| 20260906070523 | 22 | 213 | 1.6 | 11.3 | 0.00 | 0.00 | 0.00 | 80 | 1015.4 |
| 20260906070035 | 22 | 170 | 1.6 | 14.5 | 0.00 | 0.00 | 0.00 | 80 | 1015.3 |
| 20260906065519 | 23 | 172 | 4.8 | 14.5 | 0.00 | 0.00 | 0.00 | 80 | 1015.2 |
| 20260906065019 | 23 | 153 | 4.8 | 14.5 | 0.00 | 0.00 | 0.00 | 80 | 1015.1 |
| 20260906064533 | 23 | 169 | 6.4 | 14.5 | 0.00 | 0.00 | 0.00 | 80 | 1015.2 |
| 20260906064015 | 23 | 187 | 1.6 | 12.9 | 0.00 | 0.00 | 0.00 | 80 | 1015.3 |
| 20260906063514 | 23 | 153 | 4.8 | 16.1 | 0.00 | 0.00 | 0.00 | 80 | 1015.3 |
| 20260906063034 | 23 | 195 | 6.4 | 16.1 | 0.00 | 0.00 | 0.00 | 80 | 1015.4 |
| 20260906062523 | 23 | 178 | 6.4 | 12.9 | 0.00 | 0.00 | 0.00 | 80 | 1015.2 |
| 20260906062019 | 23 | 180 | 3.2 | 14.5 | 0.00 | 0.00 | 0.00 | 81 | 1015.2 |
| 20260906061536 | 23 | 192 | 1.6 | 14.5 | 0.00 | 0.00 | 0.00 | 81 | 1015.2 |
| 20260906061021 | 23 | 360 | 1.6 | 12.9 | 0.00 | 0.00 | 0.00 | 81 | 1015.2 |
| 20260906060523 | 22 | 94 | 1.6 | 11.3 | 0.00 | 0.00 | 0.00 | 81 | 1015.1 |
| 20260906060035 | 22 | 107 | 1.6 | 9.7 | 0.00 | 0.00 | 0.00 | 82 | 1015.1 |
| 20260906055515 | 22 | 128 | 3.2 | 9.7 | 0.00 | 0.00 | 0.00 | 82 | 1015.3 |
| 20260906055016 | 22 | 126 | 1.6 | 12.9 | 0.00 | 0.00 | 0.00 | 82 | 1015.3 |
| 20260906054535 | 22 | 114 | 6.4 | 12.9 | 0.00 | 0.00 | 0.00 | 82 | 1015.2 |
| 20260906054021 | 22 | 79 | 4.8 | 11.3 | 0.00 | 0.00 | 0.00 | 83 | 1015.2 |
| 20260906053520 | 22 | 107 | 3.2 | 11.3 | 0.00 | 0.00 | 0.00 | 83 | 1015.3 |
| 20260906053031 | 22 | 102 | 3.2 | 9.7 | 0.00 | 0.00 | 0.00 | 84 | 1015.3 |
| 20260906052520 | 22 | 76 | 3.2 | 9.7 | 0.00 | 0.00 | 0.00 | 84 | 1015.3 |
| 20260906052020 | 22 | 106 | 3.2 | 9.7 | 0.00 | 0.00 | 0.00 | 84 | 1015.3 |
| 20260906051547 | 22 | 103 | 4.8 | 9.7 | 0.00 | 0.00 | 0.00 | 83 | 1015.5 |
| 20260906051019 | 22 | 125 | 1.6 | 6.4 | 0.00 | 0.00 | 0.00 | 83 | 1015.6 |
| 20260906050522 | 22 | 98 | 1.6 | 6.4 | 0.00 | 0.00 | 0.00 | 83 | 1015.6 |
| 20260906050034 | 22 | 103 | 1.6 | 4.8 | 0.00 | 0.00 | 0.00 | 83 | 1015.6 |
| 20260906045520 | 22 | 98 | 0.0 | 6.4 | 0.00 | 0.00 | 0.00 | 83 | 1015.7 |
| 20260906045015 | 22 | 117 | 3.2 | 8.0 | 0.00 | 0.00 | 0.00 | 82 | 1015.7 |
| 20260906044532 | 22 | 98 | 3.2 | 11.3 | 0.00 | 0.00 | 0.00 | 82 | 1015.5 |
| 20260906044015 | 23 | 85 | 3.2 | 12.9 | 0.00 | 0.00 | 0.00 | 82 | 1015.5 |
| 20260906043516 | 23 | 129 | 4.8 | 12.9 | 0.00 | 0.00 | 0.00 | 82 | 1015.5 |
| 20260906043034 | 23 | 126 | 4.8 | 11.3 | 0.00 | 0.00 | 0.00 | 82 | 1015.4 |
| 20260906042518 | 23 | 85 | 4.8 | 11.3 | 0.00 | 0.00 | 0.00 | 82 | 1015.5 |
| 20260906042020 | 23 | 98 | 4.8 | 11.3 | 0.00 | 0.00 | 0.00 | 81 | 1015.5 |
| 20260906041537 | 23 | 101 | 6.4 | 11.3 | 0.00 | 0.00 | 0.00 | 81 | 1015.7 |
| 20260906041012 | 23 | 115 | 4.8 | 9.7 | 0.00 | 0.00 | 0.00 | 81 | 1015.9 |
| 20260906040508 | 23 | 92 | 0.0 | 11.3 | 0.00 | 0.00 | 0.00 | 81 | 1015.9 |
| 20260906040020 | 23 | 84 | 4.8 | 11.3 | 0.00 | 0.00 | 0.00 | 81 | 1015.5 |
| 20260906035511 | 23 | 123 | 6.4 | 9.7 | 0.00 | 0.00 | 0.00 | 81 | 1015.6 |
| 20260906035013 | 23 | 105 | 4.8 | 8.0 | 0.00 | 0.00 | 0.00 | 81 | 1015.7 |
| 20260906034516 | 23 | 112 | 3.2 | 9.7 | 0.00 | 0.00 | 0.00 | 80 | 1015.8 |
| 20260906034011 | 23 | 102 | 3.2 | 9.7 | 0.00 | 0.00 | 0.00 | 80 | 1015.9 |
| 20260906033511 | 23 | 117 | 3.2 | 6.4 | 0.00 | 0.00 | 0.00 | 80 | 1015.9 |
| 20260906033022 | 23 | 101 | 1.6 | 6.4 | 0.00 | 0.00 | 0.00 | 79 | 1015.9 |
| 20260906032512 | 23 | 86 | 3.2 | 6.4 | 0.00 | 0.00 | 0.00 | 79 | 1015.9 |
| 20260906032011 | 23 | 105 | 1.6 | 6.4 | 0.00 | 0.00 | 0.00 | 79 | 1016.0 |
| 20260906031516 | 24 | 117 | 3.2 | 6.4 | 0.00 | 0.00 | 0.00 | 78 | 1016.0 |
| 20260906031012 | 24 | 119 | 1.6 | 4.8 | 0.00 | 0.00 | 0.00 | 78 | 1016.1 |
| 20260906030512 | 24 | 96 | 1.6 | 6.4 | 0.00 | 0.00 | 0.00 | 78 | 1016.1 |
| 20260906030019 | 24 | 115 | 1.6 | 6.4 | 0.00 | 0.00 | 0.00 | 77 | 1016.2 |
| 20260906025511 | 24 | 114 | 3.2 | 6.4 | 0.00 | 0.00 | 0.00 | 77 | 1016.2 |
| 20260906025012 | 24 | 121 | 0.0 | 9.7 | 0.00 | 0.00 | 0.00 | 77 | 1016.2 |
| 20260906024533 | 24 | 80 | 0.0 | 9.7 | 0.00 | 0.00 | 0.00 | 77 | 1016.1 |
| 20260906024008 | 24 | 101 | 0.0 | 6.4 | 0.00 | 0.00 | 0.00 | 77 | 1016.0 |
| 20260906023509 | 24 | 105 | 1.6 | 6.4 | 0.00 | 0.00 | 0.00 | 77 | 1015.7 |
| 20260906023019 | 24 | 146 | 1.6 | 4.8 | 0.00 | 0.00 | 0.00 | 77 | 1015.7 |
| 20260906022513 | 24 | 118 | 0.0 | 8.0 | 0.00 | 0.00 | 0.00 | 77 | 1015.6 |
| 20260906022012 | 25 | 103 | 0.0 | 8.0 | 0.00 | 0.00 | 0.00 | 77 | 1015.5 |
| 20260906021517 | 25 | 117 | 0.0 | 6.4 | 0.00 | 0.00 | 0.00 | 76 | 1015.6 |
| 20260906021010 | 25 | 115 | 1.6 | 6.4 | 0.00 | 0.00 | 0.00 | 76 | 1015.4 |
| 20260906020513 | 25 | 77 | 1.6 | 6.4 | 0.00 | 0.00 | 0.00 | 76 | 1015.2 |
| 20260906020018 | 25 | 65 | 1.6 | 11.3 | 0.00 | 0.00 | 0.00 | 75 | 1015.1 |
| 20260906015509 | 25 | 96 | 3.2 | 11.3 | 0.00 | 0.00 | 0.00 | 75 | 1014.9 |
| 20260906015011 | 25 | 104 | 3.2 | 9.7 | 0.00 | 0.00 | 0.00 | 75 | 1014.9 |
| 20260906014525 | 25 | 126 | 3.2 | 9.7 | 0.00 | 0.00 | 0.00 | 74 | 1014.8 |
| 20260906014009 | 25 | 80 | 3.2 | 9.7 | 0.00 | 0.00 | 0.00 | 74 | 1015.0 |
| 20260906013512 | 25 | 118 | 3.2 | 9.7 | 0.00 | 0.00 | 0.00 | 73 | 1015.0 |
| 20260906013036 | 25 | 100 | 1.6 | 9.7 | 0.00 | 0.00 | 0.00 | 73 | 1014.9 |
| 20260906012511 | 25 | 103 | 3.2 | 9.7 | 0.00 | 0.00 | 0.00 | 72 | 1014.8 |
| 20260906012011 | 25 | 123 | 3.2 | 8.0 | 0.00 | 0.00 | 0.00 | 71 | 1014.9 |
| 20260906011516 | 26 | 111 | 3.2 | 9.7 | 0.00 | 0.00 | 0.00 | 71 | 1014.8 |
| 20260906011011 | 26 | 116 | 3.2 | 9.7 | 0.00 | 0.00 | 0.00 | 70 | 1014.7 |
| 20260906010510 | 26 | 93 | 3.2 | 6.4 | 0.00 | 0.00 | 0.00 | 70 | 1014.9 |
| 20260906010024 | 26 | 117 | 3.2 | 6.4 | 0.00 | 0.00 | 0.00 | 69 | 1015.0 |
| 20260906005511 | 26 | 98 | 3.2 | 9.7 | 0.00 | 0.00 | 0.00 | 68 | 1015.0 |
| 20260906005011 | 26 | 108 | 1.6 | 9.7 | 0.00 | 0.00 | 0.00 | 68 | 1015.1 |
| 20260906004515 | 26 | 115 | 0.0 | 4.8 | 0.00 | 0.00 | 0.00 | 67 | 1015.1 |
| 20260906004012 | 26 | 194 | 0.0 | 6.4 | 0.00 | 0.00 | 0.00 | 67 | 1015.0 |
| 20260906003512 | 26 | 107 | 0.0 | 6.4 | 0.00 | 0.00 | 0.00 | 66 | 1014.9 |
| 20260906003020 | 27 | 175 | 0.0 | 11.3 | 0.00 | 0.00 | 0.00 | 66 | 1014.8 |
| 20260906002511 | 27 | 117 | 0.0 | 11.3 | 0.00 | 0.00 | 0.00 | 65 | 1014.8 |
| 20260906002013 | 27 | 178 | 3.2 | 14.5 | 0.00 | 0.00 | 0.00 | 65 | 1014.9 |
| 20260906001522 | 27 | 146 | 6.4 | 19.3 | 0.00 | 0.00 | 0.00 | 64 | 1014.9 |
| 20260906001011 | 27 | 164 | 8.0 | 19.3 | 0.00 | 0.00 | 0.00 | 64 | 1014.9 |
| 20260906000516 | 27 | 62 | 8.0 | 17.7 | 0.00 | 0.00 | 0.00 | 63 | 1014.8 |
| 20260906000017 | 28 | 179 | 8.0 | 16.1 | 0.00 | 0.00 | 0.00 | 63 | 1014.5 |
| 20260905235519 | 28 | 107 | 1.6 | 12.9 | 0.00 | 0.00 | 0.00 | 63 | 1014.3 |
| 20260905235012 | 28 | 103 | 4.8 | 17.7 | 0.00 | 0.00 | 0.00 | 62 | 1014.1 |
| 20260905234518 | 28 | 118 | 8.0 | 14.5 | 0.00 | 0.00 | 0.00 | 60 | 1013.9 |
| 20260905234014 | 28 | 138 | 3.2 | 14.5 | 0.00 | 0.00 | 0.00 | 60 | 1013.8 |
| 20260905233520 | 28 | 96 | 4.8 | 17.7 | 0.00 | 0.00 | 0.00 | 60 | 1013.7 |
| 20260905233021 | 28 | 103 | 4.8 | 17.7 | 0.00 | 0.00 | 0.00 | 61 | 1013.8 |
| 20260905232513 | 28 | 104 | 6.4 | 16.1 | 0.00 | 0.00 | 0.00 | 60 | 1013.7 |
| 20260905232013 | 28 | 146 | 8.0 | 20.9 | 0.00 | 0.00 | 0.00 | 59 | 1013.6 |
| 20260905231522 | 29 | 55 | 11.3 | 20.9 | 0.00 | 0.00 | 0.00 | 59 | 1013.5 |
| 20260905231013 | 29 | 113 | 4.8 | 14.5 | 0.00 | 0.00 | 0.00 | 58 | 1013.6 |
| 20260905230514 | 29 | 96 | 3.2 | 12.9 | 0.00 | 0.00 | 0.00 | 59 | 1013.5 |
| 20260905230018 | 29 | 113 | 4.8 | 12.9 | 0.00 | 0.00 | 0.00 | 58 | 1013.5 |
| 20260905225513 | 29 | 99 | 6.4 | 12.9 | 0.00 | 0.00 | 0.00 | 58 | 1013.3 |
| 20260905225012 | 29 | 114 | 6.4 | 17.7 | 0.00 | 0.00 | 0.00 | 58 | 1013.3 |
| 20260905224523 | 29 | 96 | 3.2 | 17.7 | 0.00 | 0.00 | 0.00 | 57 | 1013.4 |
| 20260905224014 | 29 | 123 | 11.3 | 17.7 | 0.00 | 0.00 | 0.00 | 57 | 1013.3 |
| 20260905223519 | 29 | 96 | 6.4 | 19.3 | 0.00 | 0.00 | 0.00 | 59 | 1013.3 |
| 20260905223022 | 29 | 117 | 8.0 | 20.9 | 0.00 | 0.00 | 0.00 | 60 | 1013.3 |
| 20260905222512 | 29 | 91 | 8.0 | 20.9 | 0.00 | 0.00 | 0.00 | 59 | 1013.3 |
| 20260905222012 | 29 | 75 | 8.0 | 16.1 | 0.00 | 0.00 | 0.00 | 58 | 1013.2 |
| 20260905221524 | 29 | 81 | 8.0 | 19.3 | 0.00 | 0.00 | 0.00 | 58 | 1013.4 |
| 20260905221014 | 29 | 88 | 9.7 | 19.3 | 0.00 | 0.00 | 0.00 | 58 | 1013.4 |
| 20260905220514 | 29 | 99 | 8.0 | 17.7 | 0.00 | 0.00 | 0.00 | 59 | 1013.5 |
| 20260905220024 | 29 | 93 | 9.7 | 20.9 | 0.00 | 0.00 | 0.00 | 60 | 1013.5 |
| 20260905215514 | 29 | 96 | 9.7 | 20.9 | 0.00 | 0.00 | 0.00 | 59 | 1013.6 |
| 20260905215013 | 29 | 106 | 9.7 | 19.3 | 0.00 | 0.00 | 0.00 | 59 | 1013.6 |
| 20260905214526 | 29 | 134 | 11.3 | 17.7 | 0.00 | 0.00 | 0.00 | 58 | 1013.7 |
| 20260905214012 | 29 | 90 | 6.4 | 20.9 | 0.00 | 0.00 | 0.00 | 59 | 1013.7 |
| 20260905213514 | 28 | 123 | 8.0 | 20.9 | 0.00 | 0.00 | 0.00 | 59 | 1013.8 |
| 20260905213022 | 29 | 82 | 9.7 | 22.5 | 0.00 | 0.00 | 0.00 | 59 | 1013.9 |
| 20260905212514 | 29 | 93 | 9.7 | 22.5 | 0.00 | 0.00 | 0.00 | 59 | 1013.9 |
| 20260905212013 | 29 | 72 | 4.8 | 20.9 | 0.00 | 0.00 | 0.00 | 61 | 1013.9 |
| 20260905211535 | 28 | 42 | 9.7 | 20.9 | 0.00 | 0.00 | 0.00 | 59 | 1014.0 |
| 20260905211014 | 28 | 74 | 9.7 | 20.9 | 0.00 | 0.00 | 0.00 | 59 | 1014.0 |
| 20260905210515 | 28 | 148 | 9.7 | 20.9 | 0.00 | 0.00 | 0.00 | 60 | 1014.1 |
| 20260905210023 | 28 | 70 | 9.7 | 22.5 | 0.00 | 0.00 | 0.00 | 60 | 1014.2 |
| 20260905205516 | 28 | 138 | 6.4 | 22.5 | 0.00 | 0.00 | 0.00 | 59 | 1014.1 |
| 20260905205014 | 28 | 62 | 11.3 | 24.1 | 0.00 | 0.00 | 0.00 | 59 | 1014.2 |
| 20260905204528 | 28 | 104 | 9.7 | 24.1 | 0.00 | 0.00 | 0.00 | 60 | 1014.3 |
| 20260905204011 | 28 | 96 | 8.0 | 19.3 | 0.00 | 0.00 | 0.00 | 59 | 1014.3 |
| 20260905203515 | 28 | 97 | 8.0 | 19.3 | 0.00 | 0.00 | 0.00 | 60 | 1014.4 |
| 20260905203023 | 28 | 85 | 8.0 | 22.5 | 0.00 | 0.00 | 0.00 | 61 | 1014.4 |
| 20260905202514 | 28 | 132 | 11.3 | 20.9 | 0.00 | 0.00 | 0.00 | 60 | 1014.6 |
| 20260905202014 | 27 | 111 | 9.7 | 24.1 | 0.00 | 0.00 | 0.00 | 62 | 1014.7 |
| 20260905201527 | 28 | 88 | 11.3 | 25.7 | 0.00 | 0.00 | 0.00 | 60 | 1014.9 |